Location: Langladure
(45.8494°N, 1.8517°E)
Time: 07:15:07
(UTC+00:00)

Daily predictions for brighter satellites

Satellite Brightness Start Highest point End
(mag) Time Altitude Azimuth Time Altitude Azimuth Time Altitude Azimuth
Cosmos 2084 3.8 20:16:26 10° S 20:19:54 33° ESE 20:23:24 10° ENE
USA 276 2.6 20:24:55 10° SSW 20:27:40 33° SE 20:30:25 10° E
Spot 2 Rocket 4.4 20:26:21 10° SE 20:30:55 35° ENE 20:35:30 10° N
ATLAS 2AS CENTAUR R/B 3.1 20:23:58 10° NW 20:31:02 57° NE 20:37:38 10° ESE
Meteor 1-24 Rocket 3.9 20:27:51 10° SSE 20:32:56 50° E 20:38:09 10° NNE
Cosmos 1544 Rocket 4.4 20:29:49 10° N 20:33:49 35° ENE 20:37:48 10° SE
MetOp-B 4.2 20:28:31 10° SSE 20:33:50 72° ENE 20:39:11 10° N
Cosmos 1371 Rocket 4.1 20:29:58 10° S 20:35:05 63° ESE 20:40:19 10° NNE
Lacrosse 5 2.5 20:30:23 10° NW 20:35:24 53° NNE 20:40:24 10° ESE
Cosmos 1745 Rocket 4.3 20:29:42 10° NNW 20:35:49 71° W 20:41:56 10° S
X-37B 0.8 20:34:58 10° SW 20:37:37 38° SSE 20:40:17 10° E
Cosmos 1833 Rocket 4.4 20:36:32 10° SE 20:39:16 14° E 20:42:01 10° ENE
Terra 3.0 20:38:14 10° SE 20:42:17 29° ENE 20:46:21 10° N
Resurs 01 Rocket 2.5 20:44:26 10° S 20:48:44 48° W 20:53:04 10° NNW
Cosmos 1300 4.3 20:46:12 10° NNW 20:49:37 32° W 20:53:01 10° SSW
Helios 1A Rocket 3.4 20:51:31 12° SE 20:55:00 46° ENE 20:58:56 10° N
Cosmos 1624 Rocket 4.0 20:50:09 10° SSW 20:55:23 85° ESE 21:00:38 10° NNE
CZ-4B R/B 2.2 20:53:41 10° N 20:56:27 44° WNW 20:59:12 10° SSW
Cosmos 1190 Rocket 4.3 20:52:27 10° NNW 20:57:45 70° WSW 21:03:00 10° S
Lacrosse 5 rocket 1.2 20:54:48 10° NW 20:58:39 75° SW 21:01:56 15° SE
Cosmos 407 Rocket 4.4 20:55:46 10° NNW 21:00:39 43° WSW 21:05:28 10° S
Cosmos 1271 Rocket 2.9 20:57:12 10° N 21:01:10 62° ENE 21:04:25 15° SSE
SPOT 3 Rocket 3.6 20:59:41 10° SSE 21:04:52 82° WSW 21:10:07 10° NNW
NOSS 2-1 (E) 4.3 21:01:17 10° NNW 21:05:50 66° NE 21:11:18 14° SE
ERS-1 Rocket 3.1 21:03:41 14° SSE 21:07:59 62° ENE 21:12:58 10° N
USA 102 4.4 21:04:50 20° SSE 21:08:14 89° ENE 21:15:54 10° NNW
RESURS DK-1 3.9 21:06:30 10° N 21:10:01 26° NE 21:13:07 12° ESE
Cosmos 2056 Rocket 4.0 21:10:48 10° SSW 21:16:09 66° WNW 21:21:34 10° NNE
Cosmos 1025 Rocket 3.8 21:12:22 10° SSW 21:16:31 52° WNW 21:20:44 10° N
CZ-2C R/B 3.9 21:13:04 10° NNE 21:17:34 52° E 21:21:17 14° S
Cosmos 2315 Rocket 4.5 21:12:44 10° SSW 21:19:01 65° W 21:25:19 10° N
Cosmos 1455 Rocket 4.3 21:15:46 10° NNW 21:19:48 38° W 21:23:48 10° SSW
ARIANE 5 R/B 3.1 21:18:10 18° SE 21:21:14 47° ENE 21:25:30 10° N
Cosmos 1420 Rocket 4.4 21:18:47 10° SSW 21:24:00 69° WNW 21:29:18 10° NNE
Cosmos 676 Rocket 4.3 21:19:57 10° NNW 21:25:15 67° WSW 21:29:29 16° S
SL-8 R/B 4.0 21:22:54 10° WNW 21:27:42 67° N 21:32:31 10° E
Cosmos 1455 2.7 21:28:38 10° NNW 21:32:22 54° W 21:35:18 15° S
Cosmos 2074 Rocket 4.0 21:29:05 10° N 21:35:24 79° E 21:40:08 18° SSE
COSMOS 2406 4.3 21:37:53 20° SE 21:40:13 26° ESE 21:44:56 10° NE
ASTEX 1 4.5 21:36:08 10° NNE 21:40:31 29° E 21:42:45 21° SE
TSX-5 4.2 21:38:37 10° SSW 21:42:54 77° ESE 21:48:30 10° NNE
USA 267 3.2 21:39:25 10° NE 21:45:55 63° SE 21:52:24 10° SW
Cosmos 1536 Rocket 3.6 21:43:14 14° SSW 21:46:53 75° W 21:51:14 10° N
NOSS 2-1 (C) 4.4 21:42:45 10° NW 21:47:22 61° SW 21:51:27 22° SSE
SPOT 5 3.5 21:46:23 16° SSW 21:49:44 45° W 21:53:55 10° NNW
Cosmos 2228 2.9 21:45:41 10° N 21:49:56 74° E 21:52:05 28° SSE
Tiangong 2.4 21:48:08 10° WSW 21:50:37 25° SSW 21:50:37 25° SSW
Nadezhda 1 Rocket 4.0 21:47:09 19° S 21:51:30 65° E 21:57:31 10° NNE
Cosmos 1850 Rocket 3.9 21:47:05 10° NNW 21:52:20 85° ENE 21:55:21 26° SSE
Cosmos 1980 Rocket 3.5 21:47:27 10° N 21:52:31 31° NE 21:56:37 14° ESE
Cosmos 1703 3.2 21:51:22 21° SSW 21:53:51 81° W 21:57:43 10° N
Cosmos 1606 Rocket 3.8 21:50:44 10° N 21:54:58 53° ENE 21:56:55 29° SE
Cosmos 1697 Rocket 3.0 21:49:46 10° NNW 21:55:20 57° ENE 21:58:44 23° SE
Cosmos 1892 4.4 21:55:58 18° E 21:56:27 18° E 21:59:03 10° NE
Cosmos 2154 Rocket 4.0 21:53:57 10° N 22:00:13 85° E 22:04:13 24° S
USA 276 2.8 22:00:20 10° W 22:03:16 52° NNW 22:06:14 10° ENE
Cosmos 1610 Rocket 4.5 21:57:31 10° N 22:03:46 82° E 22:07:40 25° SSE
Cosmos 1656 3.9 21:59:22 10° NNW 22:04:46 62° WSW 22:07:55 25° S
Cosmos 1295 Rocket 4.5 21:59:14 10° N 22:05:31 87° E 22:09:23 25° S
Cosmos 1328 3.9 22:04:04 34° SSE 22:05:34 57° E 22:09:32 10° NNE
Cosmos 1331 Rocket 4.0 22:04:06 21° S 22:07:37 70° ESE 22:12:55 10° NNE
X-37B 0.1 22:10:09 10° W 22:12:57 77° S 22:12:57 77° S
Meteor 1-21 Rocket 4.2 22:10:01 20° SSW 22:13:57 86° W 22:19:39 10° N
Cosmos 1408 3.3 22:15:25 32° ESE 22:15:40 32° E 22:18:47 10° NNE
Cosmos 1452 Rocket 4.0 22:12:32 10° SW 22:17:43 59° WNW 22:22:56 10° NNE
Lacrosse 5 2.7 22:13:36 10° WNW 22:18:15 36° SW 22:20:08 27° S
Cosmos 1726 Rocket 3.5 22:15:27 10° N 22:19:47 76° E 22:21:23 38° SSE
SAR-Lupe-4 3.4 22:16:17 10° NNE 22:19:52 85° ESE 22:21:00 42° S
Terra 3.0 22:16:55 18° SSW 22:19:55 36° W 22:24:19 10° NNW
USA 234 3.5 22:14:24 14° ESE 22:20:04 71° NNE 22:26:36 10° NW
ATLAS 2AS CENTAUR R/B 3.6 22:15:25 10° NW 22:21:39 36° WSW 22:25:25 20° SSW
Cosmos 1833 Rocket 2.6 22:17:42 16° SSW 22:22:21 90° NW 22:28:00 10° NNE
Cosmos 1110 Rocket 4.2 22:25:42 16° SSW 22:29:51 72° WNW 22:35:10 10° NNE
SL-8 Rocket 4.2 22:24:30 10° N 22:30:41 59° ENE 22:33:46 30° SE
Cosmos 2360 4.2 22:27:43 10° NNW 22:33:28 78° WSW 22:36:09 33° SSE
Cosmos 1302 Rocket 4.1 22:31:56 34° SSE 22:33:58 58° ESE 22:39:04 10° NNE
Cosmos 1900 4.4 22:29:09 10° NNW 22:34:21 87° ENE 22:36:32 35° SE
ALOS 2 3.8 22:32:45 24° ESE 22:34:26 32° ENE 22:38:20 10° N
Lacrosse 5 rocket 3.7 22:36:03 10° WSW 22:37:06 11° WSW 22:37:26 11° SW
Cosmos 967 Rocket 4.5 22:34:40 13° SSW 22:40:29 87° ESE 22:46:59 10° NE
Cosmos 2218 Rocket 4.2 22:36:25 10° N 22:42:47 62° ENE 22:45:53 31° SSE
Cosmos 2082 Rocket 2.3 22:42:48 34° S 22:45:12 60° ESE 22:50:50 10° NNE
Cosmos 2366 rocket 4.2 22:40:15 10° N 22:46:33 65° E 22:49:34 32° SSE
RESURS DK-1 3.4 22:44:18 10° NW 22:48:03 34° WSW 22:48:58 30° SW
H-2A R/B 4.0 22:46:36 10° NNE 22:50:35 41° E 22:51:09 38° ESE
Cosmos 2341 Rocket 4.0 22:44:41 10° N 22:51:04 85° W 22:54:07 33° S
Cosmos 2058 Rocket 3.0 22:49:23 10° N 22:53:48 81° W 22:55:04 47° S
Spot 4 3.8 22:52:43 42° SSE 22:54:21 81° ENE 22:59:09 10° NNW
Cosmos 1892 Rocket 3.9 22:53:33 33° SW 22:55:21 60° W 22:59:43 10° N
Cosmos 1825 2.3 22:58:50 51° ESE 22:59:05 53° E 23:02:45 10° NNE
Cosmos 192 4.5 23:00:39 30° SW 23:03:04 71° WNW 23:07:59 10° NNE
TIMED 4.5 23:02:21 52° SSE 23:03:14 68° ESE 23:07:34 10° NNE
Cosmos 968 Rocket 3.5 23:00:25 10° NNW 23:05:37 74° WSW 23:07:22 42° S
ERS-2 3.5 23:03:04 10° NE 23:05:53 26° E 23:05:53 26° E
Cosmos-2242 4.2 23:03:22 10° N 23:07:09 30° ENE 23:08:16 27° ESE
GP-B 3.9 23:05:26 10° N 23:09:40 45° W 23:11:19 31° SW
SL-8 R/B 3.7 23:05:32 10° WNW 23:10:18 62° SSW 23:11:22 48° SSE
Cosmos 1959 Rocket 4.4 23:04:56 10° N 23:11:03 88° W 23:13:40 37° S
Cosmos 1626 Rocket 3.5 23:10:22 53° SSE 23:11:12 68° E 23:15:31 10° NNE
Cosmos 1869 3.1 23:12:46 10° N 23:16:40 86° E 23:17:08 68° SSE
BREEZE-M DEB (TANK) 4.1 23:13:38 10° WNW 23:16:55 66° NNE 23:29:22 10° E
Cosmos 1606 4.2 23:14:16 10° NNE 23:17:32 26° ENE 23:18:18 24° E
Meteor 1-27 4.1 23:13:01 10° NNW 23:18:37 84° W 23:20:39 41° S
Cosmos 864 Rocket 4.5 23:14:51 10° NNW 23:21:01 74° W 23:23:39 36° S
Cosmos 2181 Rocket 4.1 23:20:12 32° SSW 23:23:11 72° W 23:29:24 10° N
ADEOS Rocket 3.4 23:20:29 33° SSE 23:24:03 89° ENE 23:31:45 10° NNW
COSMOS 2406 3.9 23:19:53 17° SW 23:24:11 53° WNW 23:29:50 10° NNE
Cosmos 1633 2.8 23:25:15 51° E 23:25:15 51° E 23:28:30 10° NNE
Cosmos 2369 4.1 23:22:45 10° NW 23:28:17 49° WSW 23:30:04 37° SSW
Okean 1-7 Rocket 3.7 23:27:28 46° SW 23:28:39 68° W 23:33:08 10° N
USA 267 4.0 23:22:33 10° NE 23:28:52 53° NNW 23:35:10 10° W
SL-16 R/B 3.0 23:24:21 10° NNW 23:29:49 46° ENE 23:33:07 22° ESE
Cosmos 1892 3.9 23:30:47 28° WSW 23:31:45 32° WNW 23:35:10 10° N
Meteor 2-20 4.5 23:32:15 39° SSE 23:34:36 69° E 23:40:40 10° NNE
Cosmos 1980 Rocket 2.7 23:31:16 10° NW 23:36:43 48° WSW 23:38:21 37° SSW
SJ 16-02 2.6 23:33:21 10° N 23:37:25 34° ENE 23:39:13 24° ESE
Cosmos 1486 Rocket 3.9 23:32:43 10° NNW 23:37:58 85° WSW 23:39:34 46° SSE
Cosmos 1697 Rocket 4.1 23:34:31 10° NW 23:38:51 23° WSW 23:40:27 20° SW
USA 276 3.6 23:36:30 10° WNW 23:39:19 35° N 23:42:07 10° ENE
Cosmos 2084 Rocket 3.9 23:35:39 10° NW 23:39:10 42° WSW 23:39:10 42° WSW
Cosmos 1821 Rocket 3.9 23:37:04 10° N 23:43:23 84° E 23:45:54 39° SSE
Cosmos 1340 Rocket 4.1 23:48:44 26° E 23:49:01 26° E 23:52:21 10° NE
Cosmos 1992 Rocket 4.1 23:48:18 37° SW 23:50:19 71° WNW 23:55:35 10° NNE
